[[{"header":{"parameterUnit":"m.s-1","parameterCategory":1,"la1":30.2992,"la2":30.254,"lo1":-89.0895,"lo2":-89.0443,"dy":0.0025,"dx":0.0025,"nx":19,"ny":19,"refTime":"2026-04-12T03:00:00:Z","depth":0,"parameterNumber":2,"parameterNumberName":"U-component_of_WINDS"},"data":[0,0,0,-4.2146,-4.2149,-4.2279,-4.228,-4.2461,-4.2462,0,0,0,0,0,0,0,0,0,0,0,-4.2117,-4.2118,-4.2146,-4.2149,-4.2279,-4.228,-4.246,-4.2462,0,0,0,0,0,0,0,0,0,0,0,-4.2116,-4.2118,-4.212,-4.215,-4.2279,-4.228,-4.246,-4.2356,0,0,0,0,0,0,0,0,0,0,-4.2227,-4.2209,-4.2118,-4.212,-4.2151,-4.2279,-4.228,-4.2351,-4.2363,-4.2408,0,-4.2451,0,-4.246,-4.2475,-4.2476,0,0,0,-4.2142,-4.22,-4.2227,-4.212,-4.2152,-4.2279,-4.2219,-4.2357,-4.2371,-4.2424,-4.2454,-4.246,-4.2463,-4.2477,-4.2478,-4.2765,-4.2766,0,0,-4.2135,-4.2145,-4.2218,-4.2236,-4.2218,-4.2215,-4.2223,-4.2365,-4.2398,-4.2454,-4.2464,-4.2466,-4.2478,-4.2479,-4.2763,-4.2765,0,0,0,-4.2119,-4.214,-4.2163,-4.2229,-4.2251,-4.2219,-4.2228,-4.2392,-4.2399,-4.2466,-4.2468,-4.2479,-4.2481,-4.2761,-4.2764,-4.2857,0,0,0,-4.2115,-4.2131,-4.2161,-4.2168,-4.2249,-4.2323,-4.2252,-4.2389,-4.2405,-4.2467,-4.2479,-4.2483,-4.2759,-4.2763,-4.285,-4.2899,0,0,0,-4.2105,-4.213,-4.2152,-4.2168,-4.2225,-4.2321,-4.2336,-4.2392,-4.2407,-4.2476,-4.2484,-4.2758,-4.2762,-4.2845,-4.2889,-4.2978,0,0,0,-4.2097,-4.2232,-4.2154,-4.2304,-4.2224,-4.2378,-4.2334,-4.2449,-4.252,-4.248,-4.276,-4.2764,-4.2843,-4.2883,-4.2972,-4.3054,-4.3089,0,0,-4.2272,-4.2253,-4.2341,-4.2275,-4.2446,-4.2357,-4.2542,-4.2597,-4.2594,-4.2708,-4.2715,-4.2853,-4.2889,-4.2976,-4.3284,-4.3312,0,0,0,-4.24,-4.2463,-4.2506,-4.2575,-4.2622,-4.2665,-4.2691,-4.2712,-4.2809,-4.2655,-4.2908,-4.2929,-4.2981,-4.3019,-4.3043,-4.3087,-4.2782,-4.2782,-4.2781,-4.266,-4.265,-4.2796,-4.2803,-4.287,-4.2897,-4.295,-4.2983,-4.2952,-4.3013,-4.3046,-4.3234,-4.328,-4.3298,-4.3343,-4.3089,-4.3089,-4.309,-4.309,-4.2914,-4.3002,-4.2961,-4.3087,-4.3077,-4.3182,-4.3214,-4.3189,-4.3285,-4.3207,-4.3252,-4.3167,-4.3329,-4.3368,-4.3097,-4.3096,-4.3095,-4.3094,-4.3094,-4.3083,-4.3123,-4.3148,-4.3248,-4.3326,-4.3328,-4.3424,-4.341,-4.3398,-4.3442,-4.3477,-4.3475,-4.3471,-4.346,-4.3461,-4.3461,-4.3462,-4.3462,-4.3463,-4.3248,-4.3272,-4.3355,-4.3417,-4.346,-4.3516,-4.3546,-4.3588,-4.3631,-4.3614,-4.3614,-4.3578,-4.3347,-4.3289,-4.3473,-4.3471,-4.347,-4.3469,-4.3468,-4.3508,-4.3448,-4.3575,-4.3619,-4.3692,-4.3771,-4.3754,-4.3841,-4.3874,-4.3922,-4.3877,-4.3709,-4.3687,-4.3668,-4.362,-4.3879,-4.3879,-4.3879,-4.3879,-4.365,-4.3639,-4.3767,-4.3838,-4.3906,-4.3904,-4.4049,-4.4074,-4.409,-4.4111,-4.4072,-4.4007,-4.3988,-4.3978,-4.3952,-4.3907,-4.4233,-4.4233,-4.4233,-4.3809,-4.3805,-4.393,-4.3946,-4.4003,-4.4052,-4.4188,-4.4271,-4.4277,-4.4247,-4.4126,-4.4111,-4.4006,-4.3973,-4.3938,-4.3899,-4.3815,0,0]},{"header":{"parameterUnit":"m.s-1","parameterCategory":1,"la1":30.2992,"la2":30.254,"lo1":-89.0895,"lo2":-89.0443,"dy":0.0025,"dx":0.0025,"nx":19,"ny":19,"refTime":"2026-04-12T03:00:00:Z","depth":0,"parameterNumber":3,"parameterNumberName":"V-component_of_WINDS"},"data":[0,0,0,1.6838,1.6837,1.6779,1.6778,1.6712,1.6711,0,0,0,0,0,0,0,0,0,0,0,1.6862,1.6862,1.6838,1.6837,1.6779,1.6778,1.6712,1.6711,0,0,0,0,0,0,0,0,0,0,0,1.6862,1.6862,1.6862,1.6837,1.6779,1.6778,1.6712,1.6752,0,0,0,0,0,0,0,0,0,0,1.6807,1.6837,1.6862,1.6862,1.6836,1.6779,1.6778,1.6754,1.675,1.6742,0,1.674,0,1.6725,1.6708,1.6707,0,0,0,1.6831,1.6841,1.6819,1.6862,1.6836,1.6779,1.6803,1.6752,1.6747,1.6737,1.6739,1.6736,1.6724,1.6707,1.6707,1.6691,1.6691,0,0,1.6834,1.6855,1.6823,1.6817,1.6829,1.6805,1.6802,1.6749,1.6751,1.6738,1.6734,1.6723,1.6707,1.6706,1.6691,1.6691,0,0,0,1.6847,1.6857,1.6837,1.682,1.6809,1.6804,1.6799,1.6753,1.6745,1.6733,1.6722,1.6707,1.6706,1.6691,1.6691,1.6723,0,0,0,1.6849,1.6865,1.6838,1.685,1.681,1.6781,1.6805,1.6749,1.6742,1.6722,1.6707,1.6705,1.669,1.6691,1.6722,1.6734,0,0,0,1.6863,1.6867,1.6861,1.6852,1.6828,1.6781,1.677,1.6747,1.6735,1.6707,1.6705,1.669,1.6691,1.6721,1.6732,1.6737,0,0,0,1.6884,1.6888,1.6862,1.6862,1.6829,1.6803,1.677,1.6749,1.6728,1.6706,1.669,1.6691,1.672,1.673,1.6735,1.6744,1.675,0,0,1.69,1.689,1.6889,1.6864,1.6849,1.681,1.6798,1.6758,1.6735,1.6706,1.6706,1.6722,1.6732,1.6736,1.6777,1.6782,0,0,0,1.6901,1.69,1.6891,1.6875,1.6848,1.6824,1.6785,1.6771,1.6747,1.6726,1.6725,1.673,1.6732,1.6735,1.6739,1.6739,1.6694,1.6694,1.6693,1.6951,1.6925,1.692,1.6888,1.6873,1.6834,1.6819,1.6792,1.6767,1.6768,1.6758,1.6787,1.6792,1.6794,1.6795,1.6761,1.6762,1.6762,1.6762,1.6971,1.6966,1.6937,1.6923,1.6895,1.6881,1.6844,1.6828,1.681,1.6791,1.6791,1.6772,1.6801,1.68,1.6764,1.6764,1.6763,1.6763,1.6763,1.7001,1.6994,1.6979,1.6955,1.6939,1.6905,1.6892,1.6865,1.684,1.6841,1.6829,1.6828,1.6824,1.6837,1.6837,1.6838,1.6838,1.6838,1.6838,1.7036,1.7019,1.7012,1.6986,1.6974,1.6954,1.6918,1.6904,1.6881,1.6863,1.6863,1.6838,1.681,1.6803,1.6839,1.6839,1.6839,1.6839,1.6838,1.7065,1.7055,1.7044,1.7032,1.7001,1.6987,1.6956,1.6931,1.6916,1.691,1.6886,1.687,1.6856,1.6853,1.6847,1.6892,1.6892,1.6892,1.6892,1.7089,1.7082,1.7066,1.7049,1.7029,1.7001,1.6988,1.6961,1.693,1.6919,1.6909,1.6899,1.6897,1.6885,1.6881,1.6874,1.6926,1.6926,1.6926,1.7105,1.7095,1.709,1.7064,1.7038,1.7016,1.7003,1.6984,1.6946,1.6927,1.691,1.6908,1.6892,1.6889,1.6866,1.686,1.6848,0,0]}]]